TimeCDT,TemperatureF,Dew PointF,Humidity,Sea Level PressureIn,VisibilityMPH,Wind Direction,Wind SpeedMPH,Gust SpeedMPH,PrecipitationIn,Events,Conditions,WindDirDegrees,DateUTC
12:53 AM,66.9,59.0,76,30.12,10.0,North,4.6,-,N/A,,Partly Cloudy,350,2012-05-13 05:53:00
1:53 AM,64.9,59.0,81,30.11,10.0,North,3.5,-,N/A,,Partly Cloudy,350,2012-05-13 06:53:00
2:53 AM,63.0,59.0,87,30.11,10.0,NW,4.6,-,N/A,,Clear,320,2012-05-13 07:53:00
3:53 AM,63.0,59.0,87,30.10,10.0,NNW,5.8,-,N/A,,Clear,340,2012-05-13 08:53:00
4:53 AM,64.0,60.1,87,30.11,10.0,North,6.9,-,N/A,,Clear,360,2012-05-13 09:53:00
5:53 AM,63.0,60.1,90,30.11,10.0,North,6.9,-,N/A,,Clear,350,2012-05-13 10:53:00
6:53 AM,62.6,59.0,88,30.17,10.0,North,5.8,-,N/A,,Clear,350,2012-05-13 11:53:00
7:53 AM,66.0,60.1,81,30.15,10.0,North,8.1,-,N/A,,Clear,350,2012-05-13 12:53:00
8:53 AM,69.1,61.0,75,30.16,10.0,North,9.2,-,N/A,,Clear,10,2012-05-13 13:53:00
9:53 AM,73.4,60.8,65,30.20,10.0,North,6.9,-,N/A,,Partly Cloudy,350,2012-05-13 14:53:00
10:53 AM,75.9,60.1,58,30.16,10.0,North,9.2,-,N/A,,Partly Cloudy,360,2012-05-13 15:53:00
11:53 AM,78.8,59.0,51,30.20,10.0,North,9.2,-,N/A,,Scattered Clouds,10,2012-05-13 16:53:00
12:53 PM,79.0,59.0,50,30.14,10.0,NE,11.5,16.1,N/A,,Scattered Clouds,40,2012-05-13 17:53:00
1:53 PM,79.0,57.0,47,30.12,10.0,North,4.6,-,N/A,,Mostly Cloudy,360,2012-05-13 18:53:00
2:53 PM,80.1,57.0,45,30.10,10.0,East,4.6,-,N/A,,Mostly Cloudy,100,2012-05-13 19:53:00
3:53 PM,82.9,57.0,41,30.07,10.0,ENE,8.1,-,N/A,,Scattered Clouds,70,2012-05-13 20:53:00
4:53 PM,84.0,57.9,41,30.04,10.0,East,5.8,-,N/A,,Mostly Cloudy,80,2012-05-13 21:53:00
5:53 PM,81.0,57.0,44,30.03,10.0,East,8.1,-,N/A,,Mostly Cloudy,80,2012-05-13 22:53:00
6:53 PM,81.0,57.9,45,30.02,10.0,East,8.1,-,N/A,,Partly Cloudy,80,2012-05-13 23:53:00
7:53 PM,78.1,59.0,52,30.02,10.0,East,6.9,-,N/A,,Partly Cloudy,90,2012-05-14 00:53:00
8:53 PM,73.9,60.1,62,30.04,10.0,East,4.6,-,N/A,,Partly Cloudy,80,2012-05-14 01:53:00
9:53 PM,73.0,59.0,61,30.04,10.0,Calm,Calm,-,N/A,,Partly Cloudy,0,2012-05-14 02:53:00
10:53 PM,71.1,59.0,66,30.06,10.0,Calm,Calm,-,N/A,,Clear,0,2012-05-14 03:53:00
11:53 PM,70.0,60.1,71,30.05,10.0,Calm,Calm,-,N/A,,Clear,0,2012-05-14 04:53:00